EW6000 Weather Reports


time (UTC)temp
C
wind
direction
speed
KPH
gust
KPH
rain 1hr
cm
rain 24hr
cm
rain mn
cm
humidity
%
barometer
mb
20260906203103 31 186 14.5 29.0 0.00 1.98 1.98 52 1014.9
20260906202603 31 172 12.9 25.7 0.00 1.98 1.98 52 1014.9
20260906202103 31 175 11.3 22.5 0.00 1.98 1.98 54 1015.0
20260906201603 31 174 12.9 22.5 0.00 1.98 1.98 53 1015.1
20260906201103 31 174 12.9 24.1 0.00 1.98 1.98 53 1015.0
20260906200603 31 185 12.9 24.1 0.00 1.98 1.98 53 1015.1
20260906200104 31 187 12.9 24.1 0.00 1.98 1.98 53 1015.2
20260906195603 30 174 14.5 24.1 0.00 1.98 1.98 54 1015.4
20260906195103 30 168 14.5 24.1 0.00 1.98 1.98 54 1015.4
20260906194603 31 173 12.9 24.1 0.00 1.98 1.98 53 1015.4
20260906194103 30 177 11.3 25.7 0.00 1.98 1.98 54 1015.5
20260906192603 30 182 11.3 20.9 0.00 1.98 1.98 54 1015.5
20260906192103 30 193 11.3 20.9 0.00 1.98 1.98 54 1015.6
20260906191603 30 188 11.3 20.9 0.00 1.98 1.98 53 1015.6
20260906191103 30 167 12.9 22.5 0.00 1.98 1.98 54 1015.6
20260906190602 30 165 12.9 22.5 0.00 1.98 1.98 55 1015.7
20260906185102 30 161 12.9 24.1 0.00 1.98 1.98 56 1015.9
20260906184602 29 168 14.5 24.1 0.00 1.98 1.98 56 1016.0
20260906184102 29 176 12.9 24.1 0.00 1.98 1.98 56 1016.0
20260906183602 29 191 12.9 20.9 0.00 1.98 1.98 55 1016.0
20260906183102 29 200 12.9 24.1 0.00 1.98 1.98 56 1016.1
20260906182601 29 196 14.5 24.1 0.00 1.98 1.98 56 1016.1
20260906182101 29 190 14.5 32.2 0.00 1.98 1.98 57 1016.2
20260906181601 28 187 16.1 32.2 0.00 1.98 1.98 59 1016.3
20260906181101 28 184 16.1 29.0 0.00 1.98 1.98 58 1016.4
20260906180602 28 190 14.5 25.7 0.00 1.98 1.98 60 1016.6
20260906175601 28 188 12.9 24.1 0.00 1.98 1.98 61 1016.7
20260906175101 28 183 12.9 24.1 0.00 1.98 1.98 61 1016.7
20260906174601 28 187 12.9 24.1 0.00 1.98 1.98 63 1016.8
20260906173600 27 177 14.5 25.7 0.00 1.98 1.98 63 1016.8
20260906173101 27 174 16.1 29.0 0.00 1.98 1.98 64 1017.0
20260906172601 27 183 17.7 29.0 0.00 1.98 1.98 63 1017.0
20260906172101 27 199 19.3 33.8 0.00 1.98 1.98 62 1017.1
20260906171600 27 200 19.3 33.8 0.00 1.98 1.98 61 1017.1
20260906171100 27 200 16.1 32.2 0.00 1.98 1.98 61 1017.1
20260906170601 27 193 14.5 25.7 0.00 1.98 1.98 62 1017.1
20260906170100 27 186 14.5 32.2 0.00 1.98 1.98 66 1017.3
20260906165600 27 194 12.9 32.2 0.00 1.98 1.98 64 1017.3
20260906165100 26 170 16.1 32.2 0.00 1.98 1.98 65 1017.3
20260906164600 26 176 17.7 32.2 0.00 1.98 1.98 65 1017.2
20260906164100 26 189 17.7 27.4 0.00 1.98 1.98 65 1017.2
20260906163600 26 171 16.1 25.7 0.00 1.98 1.98 65 1017.2
20260906163100 26 173 12.9 25.7 0.00 1.98 1.98 66 1017.2
20260906162559 26 172 12.9 29.0 0.00 1.98 1.98 68 1017.3
20260906162100 25 161 12.9 29.0 0.00 1.98 1.98 68 1017.3
20260906160100 24 175 14.5 25.7 0.00 1.98 1.98 73 1017.3
20260906155559 24 160 14.5 25.7 0.00 1.98 1.98 74 1017.2
20260906155059 24 155 12.9 24.1 0.00 1.98 1.98 75 1017.3
20260906154559 24 163 12.9 24.1 0.00 1.98 1.98 76 1017.3
20260906154059 23 181 11.3 24.1 0.00 1.98 1.98 76 1017.1
20260906152559 23 160 14.5 25.7 0.00 1.98 1.98 79 1017.0
20260906152058 23 167 14.5 24.1 0.00 1.98 1.98 79 1016.9
20260906151559 22 168 12.9 27.4 0.00 1.98 1.98 80 1016.9
20260906151058 22 166 12.9 30.6 0.00 1.98 1.98 80 1016.9
20260906150558 22 163 12.9 30.6 0.00 1.98 1.98 81 1017.0
20260906150058 22 158 11.3 20.9 0.00 1.98 1.98 82 1017.1
20260906145559 22 157 9.7 20.9 0.00 1.98 1.98 84 1017.0
20260906145058 22 151 9.7 19.3 0.00 1.98 1.98 85 1017.0
20260906143558 21 126 8.0 17.7 0.00 1.98 1.98 87 1016.9
20260906143058 21 116 6.4 16.1 0.00 1.98 1.98 88 1016.9
20260906142600 20 110 4.8 16.1 0.00 1.98 1.98 89 1016.8
20260906142058 20 105 3.2 9.7 0.00 1.98 1.98 89 1016.8
20260906141557 20 107 1.6 8.0 0.00 1.98 1.98 91 1016.8
20260906141058 20 107 0.0 6.4 0.00 1.98 1.98 91 1016.9
20260906140559 20 80 0.0 3.2 0.00 1.98 1.98 92 1016.8
20260906140057 20 71 0.0 3.2 0.00 1.98 1.98 92 1016.8
20260906135558 19 12 0.0 3.2 0.00 1.98 1.98 92 1016.9
20260906135057 19 1 0.0 3.2 0.00 1.98 1.98 92 1016.7
20260906134558 19 345 0.0 1.6 0.00 1.98 1.98 92 1016.8
20260906133558 19 337 1.6 4.8 0.00 1.98 1.98 92 1016.9
20260906133057 19 333 0.0 3.2 0.03 1.98 1.98 91 1017.0
20260906132557 19 333 0.0 1.6 0.03 1.98 1.98 91 1016.9
20260906132058 19 333 1.6 4.8 0.03 1.98 1.98 91 1016.6
20260906131556 19 336 1.6 4.8 0.03 1.98 1.98 91 1016.7
20260906131057 19 359 1.6 8.0 0.03 1.98 1.98 91 1016.3
20260906130557 19 357 3.2 9.7 0.03 1.98 1.98 91 1016.0
20260906130057 19 349 6.4 14.5 0.03 1.98 1.98 91 1016.0
20260906125557 19 341 8.0 14.5 0.03 1.98 1.98 90 1016.1
20260906125056 20 333 6.4 16.1 0.03 1.98 1.98 90 1015.8
20260906124556 20 95 11.3 33.8 0.03 1.98 1.98 90 1015.4
20260906123556 20 144 22.5 35.4 0.03 1.98 1.98 90 1013.8
20260906123056 20 153 20.9 35.4 0.00 1.96 1.96 91 1015.3
20260906122556 19 158 11.3 25.7 0.00 1.96 1.96 93 1015.6
20260906122056 19 184 3.2 14.5 0.00 1.96 1.96 94 1016.1
20260906121556 18 202 3.2 8.0 0.00 1.96 1.96 95 1016.5
20260906121056 18 218 3.2 9.7 0.00 1.96 1.96 96 1016.4
20260906120556 18 199 3.2 9.7 0.00 1.96 1.96 96 1016.4
20260906120056 18 182 4.8 9.7 0.00 1.96 1.96 96 1016.2
20260906115555 18 175 4.8 11.3 0.00 1.96 1.96 96 1016.1
20260906115056 18 150 6.4 12.9 0.00 1.96 1.96 96 1015.9
20260906114555 18 137 6.4 14.5 0.00 1.96 1.96 96 1015.5
20260906114056 18 121 8.0 19.3 0.00 1.96 1.96 96 1015.5
20260906113556 18 111 9.7 22.5 0.00 1.96 1.96 96 1015.6
20260906112556 18 104 12.9 30.6 0.00 1.96 1.96 96 1015.8
20260906111556 18 105 8.0 27.4 0.00 1.96 1.96 96 1015.8
20260906111055 18 103 9.7 17.7 0.00 1.96 1.96 96 1015.6
20260906110555 18 101 8.0 17.7 0.00 1.96 1.96 96 1015.3
20260906110055 18 104 3.2 14.5 0.00 1.96 1.96 96 1015.4
20260906105555 18 75 3.2 8.0 0.00 1.96 1.96 96 1015.5
20260906105054 18 80 6.4 27.4 0.00 1.96 1.96 96 1015.4
20260906104555 18 96 12.9 29.0 0.03 1.96 1.96 96 1015.2
20260906104054 18 99 16.1 29.0 0.03 1.96 1.96 96 1014.0
20260906103555 18 101 14.5 25.7 0.03 1.96 1.96 96 1014.6
20260906102554 18 97 17.7 37.0 0.05 1.96 1.96 96 1014.4
20260906101054 18 103 12.9 32.2 0.28 1.96 1.96 96 1015.2
20260906100555 18 102 6.4 20.9 0.58 1.96 1.96 96 1015.6
20260906100054 18 99 6.4 16.1 0.86 1.96 1.96 96 1015.6
20260906095554 18 94 4.8 16.1 0.91 1.96 1.96 96 1015.8
20260906095053 18 93 3.2 16.1 0.97 1.96 1.96 96 1016.0
20260906094553 18 88 1.6 8.0 0.99 1.93 1.93 96 1016.2
20260906094054 18 82 0.0 3.2 1.04 1.93 1.93 96 1017.0
20260906093554 18 85 1.6 4.8 1.14 1.93 1.93 96 1017.4
20260906093054 18 50 1.6 6.4 1.22 1.91 1.91 96 1017.6
20260906092554 18 37 3.2 6.4 1.24 1.91 1.91 96 1017.6
20260906092054 18 10 4.8 16.1 1.22 1.88 1.88 96 1018.2
20260906091554 18 349 8.0 16.1 1.17 1.83 1.83 95 1018.3
20260906091054 18 315 6.4 12.9 0.97 1.63 1.63 95 1019.1
20260906090553 18 291 6.4 17.7 0.61 1.27 1.27 94 1019.4
20260906090053 18 301 6.4 17.7 0.46 1.09 1.09 92 1019.1
20260906085553 18 314 8.0 17.7 0.43 1.02 1.02 92 1018.6
20260906085055 18 324 9.7 20.9 0.48 0.99 0.99 92 1018.2
20260906084553 18 322 9.7 20.9 0.53 0.94 0.94 92 1017.4
20260906084053 18 320 8.0 19.3 0.51 0.89 0.89 92 1017.5
20260906083552 18 326 8.0 19.3 0.46 0.79 0.79 92 1017.4
20260906082553 17 334 9.7 25.7 0.61 0.66 0.66 95 1017.4
20260906082054 17 334 9.7 19.3 0.64 0.66 0.66 95 1017.4
20260906080552 17 315 11.3 22.5 0.66 0.66 0.66 94 1017.9
20260906080053 17 317 12.9 32.2 0.64 0.64 0.64 93 1017.9
20260906075552 18 310 12.9 32.2 0.58 0.58 0.58 92 1018.3
20260906075053 18 301 12.9 30.6 0.51 0.51 0.51 90 1018.5
20260906074553 18 304 14.5 30.6 0.41 0.41 0.41 91 1018.6
20260906074053 18 310 14.5 29.0 0.38 0.38 0.38 92 1018.4
20260906073552 18 315 16.1 33.8 0.33 0.33 0.33 92 1018.3
20260906073052 18 309 17.7 35.4 0.18 0.18 0.18 90 1017.9
20260906072552 18 302 17.7 38.6 0.05 0.05 0.05 89 1018.3
20260906072051 19 300 17.7 41.8 0.03 0.03 0.03 88 1018.0
20260906071552 20 296 19.3 45.1 0.03 0.03 0.03 87 1017.9
20260906070052 22 278 17.7 43.5 0.00 0.00 0.00 77 1017.9
20260906065552 23 274 9.7 40.2 0.00 0.00 0.00 76 1017.8
20260906064551 24 340 4.8 9.7 0.00 0.00 0.00 86 1016.0
20260906064052 24 336 3.2 9.7 0.00 0.00 0.00 86 1015.9
20260906063551 24 325 1.6 6.4 0.00 0.00 0.00 86 1015.9
20260906063051 24 330 1.6 6.4 0.00 0.00 0.00 86 1015.7
20260906062051 24 110 1.6 3.2 0.00 0.00 0.00 86 1015.4
20260906061551 24 108 1.6 8.0 0.00 0.00 0.00 86 1015.4
20260906061051 24 106 1.6 8.0 0.00 0.00 0.00 86 1015.5
20260906060550 24 96 0.0 6.4 0.00 0.00 0.00 86 1015.3
20260906060051 25 51 0.0 1.6 0.00 0.00 0.00 86 1015.2
20260906055550 25 51 0.0 1.6 0.00 0.00 0.00 85 1015.2
20260906055051 25 80 0.0 3.2 0.00 0.00 0.00 85 1015.2
20260906054550 25 85 0.0 3.2 0.00 0.00 0.00 84 1015.2
20260906053551 25 108 0.0 1.6 0.00 0.00 0.00 84 1015.3
20260906053050 25 105 1.6 4.8 0.00 0.00 0.00 84 1015.3
20260906052551 25 121 1.6 4.8 0.00 0.00 0.00 84 1015.2
20260906052050 25 146 4.8 9.7 0.00 0.00 0.00 84 1015.1
20260906051551 25 152 4.8 9.7 0.00 0.00 0.00 84 1015.1
20260906051052 25 148 3.2 6.4 0.00 0.00 0.00 83 1015.1
20260906050550 25 117 4.8 8.0 0.00 0.00 0.00 83 1014.9
20260906050051 25 103 4.8 9.7 0.00 0.00 0.00 83 1014.7
20260906045550 25 101 6.4 14.5 0.00 0.00 0.00 83 1014.5
20260906045050 25 105 6.4 14.5 0.00 0.00 0.00 83 1014.6
20260906044550 25 123 3.2 8.0 0.00 0.00 0.00 83 1014.6
20260906044049 25 134 3.2 6.4 0.00 0.00 0.00 83 1014.7
20260906043549 25 120 4.8 9.7 0.00 0.00 0.00 82 1014.9
20260906043049 25 109 3.2 9.7 0.00 0.00 0.00 81 1015.2
20260906042550 25 105 1.6 9.7 0.00 0.00 0.00 82 1015.5
20260906042049 25 101 0.0 6.4 0.00 0.00 0.00 82 1015.4
20260906041549 25 90 0.0 6.4 0.00 0.00 0.00 82 1015.4
20260906040049 26 104 3.2 11.3 0.00 0.00 0.00 80 1015.4
20260906035549 26 100 1.6 11.3 0.00 0.00 0.00 80 1015.5
20260906035048 26 48 1.6 4.8 0.00 0.00 0.00 79 1015.5
20260906034549 26 41 1.6 4.8 0.00 0.00 0.00 79 1015.4
20260906034048 26 53 1.6 3.2 0.00 0.00 0.00 78 1015.6
20260906033548 26 80 1.6 4.8 0.00 0.00 0.00 78 1015.4
20260906033048 26 112 1.6 4.8 0.00 0.00 0.00 77 1015.3
20260906032548 26 102 3.2 9.7 0.00 0.00 0.00 77 1015.2
20260906032049 26 102 6.4 11.3 0.00 0.00 0.00 78 1015.1
20260906031548 26 103 6.4 11.3 0.00 0.00 0.00 78 1015.0
20260906031048 26 104 8.0 14.5 0.00 0.00 0.00 78 1014.9
20260906030548 26 104 8.0 14.5 0.00 0.00 0.00 78 1014.9
20260906030048 26 104 8.0 12.9 0.00 0.00 0.00 78 1014.8
20260906025548 26 104 8.0 12.9 0.00 0.00 0.00 77 1014.7
20260906024548 26 100 3.2 11.3 0.00 0.00 0.00 77 1014.6
20260906024047 26 100 4.8 12.9 0.00 0.00 0.00 77 1014.5
20260906023548 26 102 6.4 12.9 0.00 0.00 0.00 77 1014.3
20260906023048 26 104 6.4 11.3 0.00 0.00 0.00 77 1014.3
20260906022547 26 103 6.4 11.3 0.00 0.00 0.00 76 1014.2
20260906021548 26 102 3.2 8.0 0.00 0.00 0.00 75 1014.2
20260906021047 27 101 1.6 6.4 0.00 0.00 0.00 74 1014.2
20260906020547 27 104 0.0 6.4 0.00 0.00 0.00 73 1014.3
20260906020048 27 104 0.0 1.6 0.00 0.00 0.00 73 1014.4
20260906015547 27 104 0.0 1.6 0.00 0.00 0.00 72 1014.4
20260906015047 27 105 0.0 1.6 0.00 0.00 0.00 72 1014.6
20260906014547 27 105 0.0 1.6 0.00 0.00 0.00 71 1014.5
20260906013547 27 106 0.0 1.6 0.00 0.00 0.00 71 1014.5
20260906013047 27 0 0.0 0.0 0.00 0.00 0.00 70 1014.3
20260906012546 27 108 0.0 4.8 0.00 0.00 0.00 70 1014.5
20260906012047 27 109 1.6 8.0 0.00 0.00 0.00 69 1014.4
20260906011546 28 111 1.6 8.0 0.00 0.00 0.00 69 1014.4
20260906011046 28 110 1.6 4.8 0.00 0.00 0.00 68 1014.5
20260906010546 28 108 1.6 4.8 0.00 0.00 0.00 67 1014.4
20260906010046 28 105 1.6 6.4 0.00 0.00 0.00 67 1014.4
20260906005547 28 103 1.6 6.4 0.00 0.00 0.00 66 1014.5
20260906005046 28 104 1.6 4.8 0.00 0.00 0.00 66 1014.5
20260906004546 28 101 1.6 6.4 0.00 0.00 0.00 65 1014.6
20260906004046 28 98 1.6 6.4 0.00 0.00 0.00 64 1014.7
20260906003546 28 92 1.6 8.0 0.00 0.00 0.00 63 1014.6
20260906003046 28 92 1.6 8.0 0.00 0.00 0.00 62 1014.6
20260906002545 29 103 1.6 9.7 0.00 0.00 0.00 61 1014.5
20260906002046 29 99 1.6 9.7 0.00 0.00 0.00 61 1014.3
20260906001545 29 90 1.6 8.0 0.00 0.00 0.00 60 1014.2
20260906001045 30 89 3.2 9.7 0.00 0.00 0.00 60 1014.1
20260906000546 30 90 1.6 11.3 0.00 0.00 0.00 59 1014.0
20260906000045 30 93 1.6 11.3 0.00 0.00 0.00 58 1014.2
20260905235546 30 93 1.6 9.7 0.00 0.00 0.00 57 1014.3
20260905235046 30 96 1.6 12.9 0.00 0.00 0.00 57 1014.2
20260905234545 31 94 1.6 12.9 0.00 0.00 0.00 56 1014.1
20260905234045 31 91 1.6 8.0 0.00 0.00 0.00 56 1014.2
20260905233046 31 96 3.2 12.9 0.00 0.00 0.00 54 1014.1
20260905232545 31 94 4.8 12.9 0.00 0.00 0.00 54 1014.0
20260905232045 31 91 4.8 16.1 0.00 0.00 0.00 53 1013.9
20260905231544 31 91 6.4 16.1 0.00 0.00 0.00 53 1013.8
20260905231045 32 89 4.8 12.9 0.00 0.00 0.00 52 1013.8
20260905230544 32 90 4.8 12.9 0.00 0.00 0.00 52 1013.7
20260905230044 32 95 3.2 22.5 0.00 0.00 0.00 53 1013.7
20260905225545 31 96 6.4 22.5 0.00 0.00 0.00 52 1013.6
20260905225045 32 97 8.0 22.5 0.00 0.00 0.00 52 1013.5
20260905224544 32 99 9.7 24.1 0.00 0.00 0.00 50 1013.5
20260905224044 32 100 12.9 24.1 0.00 0.00 0.00 50 1013.5
20260905223544 32 97 9.7 24.1 0.00 0.00 0.00 51 1013.4
20260905223044 32 95 9.7 24.1 0.00 0.00 0.00 51 1013.3
20260905222544 32 96 9.7 24.1 0.00 0.00 0.00 52 1013.2
20260905222044 32 94 8.0 19.3 0.00 0.00 0.00 52 1013.3
20260905221543 32 94 6.4 17.7 0.00 0.00 0.00 53 1013.3
20260905220544 32 90 6.4 24.1 0.00 0.00 0.00 54 1013.3
20260905215543 32 93 6.4 29.0 0.00 0.00 0.00 53 1013.4
20260905215043 32 90 4.8 17.7 0.00 0.00 0.00 54 1013.5
20260905214543 32 91 6.4 17.7 0.00 0.00 0.00 53 1013.5
20260905214043 32 90 6.4 17.7 0.00 0.00 0.00 52 1013.6
20260905213543 32 86 6.4 17.7 0.00 0.00 0.00 52 1013.8
20260905213043 32 81 4.8 17.7 0.00 0.00 0.00 52 1013.9
20260905211543 31 69 3.2 11.3 0.00 0.00 0.00 52 1014.3
20260905211043 31 68 4.8 11.3 0.00 0.00 0.00 52 1014.3
20260905210543 32 74 4.8 19.3 0.00 0.00 0.00 51 1014.4
20260905210043 32 83 4.8 22.5 0.00 0.00 0.00 50 1014.5
20260905205543 32 88 6.4 22.5 0.00 0.00 0.00 50 1014.5
20260905205042 32 90 6.4 20.9 0.00 0.00 0.00 50 1014.5
20260905204543 32 92 6.4 20.9 0.00 0.00 0.00 50 1014.6
20260905204042 32 92 6.4 20.9 0.00 0.00 0.00 51 1014.6
20260905203542 32 90 6.4 20.9 0.00 0.00 0.00 52 1014.6